Lid_Strength_Index
-1 -1 -2 -1 -2 -2 -1 -2 -1 -1 -2 -1 -1 -1 -1 -1 -1 -1 -2 -2 -1 -1 -1 -1 -1 -1 -1 -1 -1 -1 -1 -1 -1 -1 -1 -1 -1 -2 -1 -1 -1 -1 -2
-2 -1 -1 -1 -1 -2 -2 -2 -1 -1 -1 -1 -1 -1 -1 -1 -2 -2 -1 -2 -2 -1 -1 -1 -1 -1 -1 -1 -1 -1 -1 -1 -1 -2 -2 -2 -1 -2 -2 -1 -1 -1 -1
-2 -2 -1 -1 -1 -2 -2 -2 -2 -2 -1 -1 -1 -1 -1 -1 -1 -1 -2 -1 -2 -2 -2 -1 -1 -1 -1 -1 -1 -1 -2 -2 -2 -2 -2 -1 -1 -1 -1 -2 -2 -1 -1
-2 -2 -1 -1 -2 -2 -2 -1 -1 -1 -1 -0 -1 -1 -1 -1 -1 -1 -1 -2 -1 -1 -2 -2 -2 -1 -1 -1 -2 -2 -2 -2 -2 -2 -2 -2 -2 -1 -1 -1 -2 -2 -2
-2 -2 -1 -1 -2 -1 -1 -1 -1 -2 -0 -0 -0 -1 -1 -1 -1 -1 -1 -1 -2 -2 -1 -3 -3 -3 -2 -2 -2 -2 -2 -2 -2 -2 -2 -2 -2 -2 -2 -1 -2 -1 -1
-2 -2 -1 -2 -1 -1 -1 -0 -0 -1 -0 -0 0 0 -0 -1 -1 -1 -1 -1 -1 -2 -1 -2 -2 -2 -3 -3 -4 -3 -2 -2 -2 -2 -2 -2 -2 -1 -1 -1 -1 -1 -1
-2 -2 -1 -1 -1 0 -0 -2 -1 -1 0 -1 0 1 0 -1 -0 -1 -1 -1 -1 -1 -1 -1 -2 -1 -1 -3 -3 -3 -3 -3 -3 -2 -2 -2 -2 -1 -1 -1 -1 -1 -1
-2 -2 -1 -1 -0 -1 -1 -1 -1 0 -0 -1 2 1 3 1 0 -0 -1 -1 -1 -1 -1 -1 -2 -2 -2 -1 -2 -3 -3 -3 -2 -2 -2 -2 -2 -2 -1 -1 -1 -1 -1
-1 -2 -1 -2 -1 -1 -0 -1 -1 -1 1 -0 -0 2 3 4 2 0 -0 -0 -1 -1 -1 -1 -1 -2 -2 -2 -2 -2 -2 -2 -3 -2 -2 -3 -3 -2 -2 -1 -1 -1 -1
-2 -2 -2 -1 -2 -0 -1 -1 -1 -0 -0 1 -0 0 -0 1 4 3 1 0 -0 -0 -1 -1 -1 -1 -2 -1 -2 -2 -2 -2 -2 -2 -2 -3 -3 -2 -2 -1 -1 -1 -1
-2 -1 -2 -1 -1 -1 -1 -1 -1 -1 -0 1 1 1 0 0 -0 2 3 2 0 -0 -1 -1 -1 -1 -1 -1 -1 -2 -2 -2 -2 -2 -2 -2 -2 -2 -2 -2 -1 -1 -1
-1 -2 -1 -2 -2 -1 -1 -1 -1 -1 -1 -0 0 0 1 3 2 2 2 2 2 1 -0 -1 -1 -1 -1 -1 -2 -2 -2 -1 -1 -1 -1 -1 -1 -2 -1 -1 -2 -2 -1
0 -0 -2 -1 -1 -2 -1 -2 -1 -1 -1 -0 -1 0 -0 0 0 1 1 2 2 1 1 -0 -1 -1 -1 -1 -2 -2 -3 -1 0 0 1 -1 -1 -2 -2 -1 -1 -1 -1
-0 -1 -1 -1 -2 -1 -1 -2 -1 -1 -1 -1 -1 -1 0 -0 -0 -0 1 2 3 3 2 0 -0 -1 -1 -1 -2 -2 -2 -1 -0 -0 1 0 -0 -1 -1 -1 -1 -1 -1
-0 -1 -1 -1 -1 -1 -1 -2 -0 -1 -1 -1 -1 -1 -0 -0 -0 -0 -0 0 2 4 3 1 1 -1 -1 -1 -2 -2 -2 -1 -1 -0 1 1 0 -0 -0 -0 -0 -1 -1
-1 -1 -1 -1 -1 -1 -1 -1 -1 -1 -1 -0 -0 -1 -1 -0 -0 -0 -0 -0 0 2 3 1 1 -0 -1 -1 -2 -2 -2 -0 -0 -1 -0 1 1 0 0 1 1 -0 -0
-1 -1 -1 -1 -1 -1 -1 -1 -1 -1 -0 -1 -1 -1 -1 -1 0 -0 -0 -0 0 1 2 1 0 -1 -1 -1 -1 -2 -2 -2 -1 0 1 0 1 1 1 2 2 0 0
-1 -1 -1 -1 -1 -1 -1 -1 -0 -0 -0 0 -0 -1 -0 -0 -0 -1 -0 -0 -0 -0 1 2 1 0 -1 -2 -1 -1 -1 -1 -2 -0 0 -0 1 1 2 3 2 1 1
-1 -1 -1 -1 -1 -1 -1 -1 -1 -0 -0 -0 -0 -0 -0 -1 -0 0 -0 0 0 0 0 1 2 0 0 -0 -1 -1 -1 -2 -1 -1 0 -0 0 1 2 3 3 2 3
-1 -1 -1 -1 -1 -1 -1 -1 -1 -0 -1 -1 -1 -1 -1 -0 -0 -0 0 -0 0 1 0 1 1 1 1 -0 0 1 1 -0 0 -1 -1 0 1 1 2 2 2 1 3
-1 -1 -1 -1 -1 -0 -0 0 -1 -0 -0 -0 -1 -1 -1 -1 1 0 0 -0 0 1 1 2 2 1 1 1 1 1 1 1 0 -0 -0 -0 -1 -1 -1 2 -0 1 3
-1 -1 -1 -0 -1 1 5 5 2 -0 -0 -0 0 -0 -1 -0 0 2 3 3 1 1 1 2 2 2 2 1 1 1 1 2 3 -1 1 1 -1 -0 -1 -1 1 3 3
-0 -0 -0 0 1 2 7 6 4 -0 -0 -0 -0 0 -0 -0 0 -0 1 3 3 4 3 0 2 1 1 1 0 1 1 2 2 0 0 2 -0 0 -1 -1 2 3 3
0 0 0 -0 1 4 8 8 6 -0 -0 -0 -0 -0 -0 0 5 4 1 0 -0 -0 -1 -0 -0 -0 -0 -1 -0 0 0 1 1 0 -0 3 0 1 -0 -1 2 4 5
1 1 0 2 3 6 9 8 4 -0 0 0 1 2 1 3 7 7 0 0 0 -0 2 3 2 3 4 4 3 0 1 2 3 2 -0 1 1 1 0 0 -1 4 5
2 3 5 4 6 6 10 9 5 -0 0 0 -0 3 6 5 7 7 0 0 1 1 0 -0 -1 -0 2 -0 4 -1 0 2 3 3 0 2 1 1 3 0 -0 -1 -1